CFG1UF EDDF-LFPG

Flight info

Callsign CFG1UF
Flight time 0h 54m
Altitude 24000
Route SOBRA2L/18 SOBRA Y180 DIK UN857 TOLVU/N0389F230 DCT RAPOR DCT VEDUS
Aircraft A320/M-SDE3FGHIJ1LORVWXYZ/SB1

Departure

Time 2026-05-05 16:16
Airport Frankfurt Main Airport (EDDF)

Arrival

Time 2026-05-05 17:10
Airport Charles de Gaulle International Airport (LFPG)
Time Latitude Longitude Altitude Speed Heading
2026-05-05 15:41 50.04061 8.54787 351 ft 0 kts 69°
2026-05-05 16:05 50.04061 8.54786 350 ft 1 kts 69°
2026-05-05 16:05 50.04053 8.54752 358 ft 4 kts 69°
2026-05-05 16:05 50.04046 8.54725 351 ft 4 kts 69°
2026-05-05 16:05 50.04041 8.54698 351 ft 4 kts 83°
2026-05-05 16:06 50.04043 8.54660 355 ft 4 kts 129°
2026-05-05 16:06 50.04055 8.54645 358 ft 0 kts 160°
2026-05-05 16:10 50.04051 8.54648 356 ft 3 kts 160°
2026-05-05 16:10 50.04007 8.54673 355 ft 10 kts 160°
2026-05-05 16:10 50.03931 8.54645 354 ft 15 kts 234°
2026-05-05 16:11 50.03889 8.54474 350 ft 18 kts 249°
2026-05-05 16:11 50.03734 8.53947 351 ft 18 kts 249°
2026-05-05 16:12 50.03687 8.53752 351 ft 20 kts 250°
2026-05-05 16:12 50.03585 8.53350 338 ft 19 kts 249°
2026-05-05 16:13 50.03447 8.52789 334 ft 14 kts 249°
2026-05-05 16:13 50.03434 8.52730 335 ft 0 kts 251°
2026-05-05 16:14 50.03380 8.52608 333 ft 11 kts 205°
2026-05-05 16:14 50.03320 8.52596 333 ft 0 kts 178°
2026-05-05 16:15 50.02761 8.52598 334 ft 108 kts 179°
2026-05-05 16:16 50.00729 8.52624 1177 ft 156 kts 180°
2026-05-05 16:16 49.98413 8.52755 2525 ft 182 kts 180°
2026-05-05 16:17 49.95649 8.52976 3679 ft 219 kts 180°
2026-05-05 16:17 49.94097 8.53070 4600 ft 226 kts 180°
2026-05-05 16:18 49.90900 8.53264 6557 ft 233 kts 179°
2026-05-05 16:18 49.89274 8.53365 7471 ft 236 kts 179°
2026-05-05 16:18 49.85972 8.52750 9120 ft 255 kts 199°
2026-05-05 16:19 49.84235 8.51770 9716 ft 273 kts 199°
2026-05-05 16:19 49.82400 8.50721 10275 ft 292 kts 199°
2026-05-05 16:19 49.78358 8.48239 11316 ft 327 kts 211°
2026-05-05 16:20 49.76015 8.42242 12959 ft 349 kts 264°
2026-05-05 16:20 49.76831 8.34762 14502 ft 361 kts 282°
2026-05-05 16:21 49.78148 8.27159 15984 ft 370 kts 283°
2026-05-05 16:22 49.80146 8.15383 18164 ft 383 kts 282°
2026-05-05 16:22 49.81431 8.07291 19434 ft 390 kts 281°
2026-05-05 16:23 49.82721 7.99039 20719 ft 397 kts 281°
2026-05-05 16:23 49.83374 7.94874 21345 ft 400 kts 281°
2026-05-05 16:23 49.84699 7.86424 22538 ft 407 kts 281°
2026-05-05 16:24 49.85367 7.82148 23114 ft 410 kts 281°
2026-05-05 16:24 49.86038 7.77845 23617 ft 413 kts 281°
2026-05-05 16:24 49.87390 7.69196 23827 ft 410 kts 282°
2026-05-05 16:25 49.88064 7.64911 23828 ft 409 kts 282°
2026-05-05 16:25 49.89397 7.56353 23831 ft 408 kts 282°
2026-05-05 16:25 49.90056 7.52061 23829 ft 408 kts 282°
2026-05-05 16:26 49.91366 7.43486 23826 ft 408 kts 282°
2026-05-05 16:26 49.92667 7.34921 23837 ft 408 kts 282°
2026-05-05 16:27 49.93319 7.30628 23837 ft 408 kts 282°
2026-05-05 16:27 49.93971 7.26332 23847 ft 408 kts 282°
2026-05-05 16:27 49.94619 7.22049 23849 ft 408 kts 282°
2026-05-05 16:27 49.95262 7.17769 23850 ft 407 kts 282°
2026-05-05 16:28 49.95903 7.13488 23849 ft 407 kts 282°
2026-05-05 16:28 49.96544 7.09206 23847 ft 407 kts 282°
2026-05-05 16:28 49.97183 7.04923 23846 ft 407 kts 282°
2026-05-05 16:28 49.97815 7.00652 23844 ft 407 kts 282°
2026-05-05 16:29 49.98450 6.96352 23831 ft 406 kts 282°
2026-05-05 16:29 49.99037 6.92104 23816 ft 406 kts 277°
2026-05-05 16:29 49.99243 6.87729 23809 ft 404 kts 267°
2026-05-05 16:29 49.99124 6.83374 23822 ft 404 kts 266°
2026-05-05 16:30 49.98995 6.79019 23824 ft 404 kts 266°
2026-05-05 16:30 49.98866 6.74648 23828 ft 404 kts 266°
2026-05-05 16:30 49.98735 6.70297 23831 ft 404 kts 265°
2026-05-05 16:30 49.98599 6.65935 23830 ft 403 kts 265°
2026-05-05 16:31 49.98464 6.61583 23829 ft 403 kts 265°
2026-05-05 16:31 49.98175 6.57270 23822 ft 401 kts 257°
2026-05-05 16:31 49.97430 6.53112 23802 ft 399 kts 248°
2026-05-05 16:31 49.96342 6.49152 23800 ft 398 kts 245°
2026-05-05 16:32 49.95232 6.45214 23796 ft 398 kts 245°
2026-05-05 16:32 49.94123 6.41271 23799 ft 398 kts 245°
2026-05-05 16:32 49.93015 6.37328 23797 ft 398 kts 245°
2026-05-05 16:32 49.91906 6.33393 23827 ft 398 kts 244°
2026-05-05 16:33 49.90797 6.29462 23831 ft 398 kts 244°
2026-05-05 16:33 49.89679 6.25544 23832 ft 397 kts 243°
2026-05-05 16:33 49.88538 6.21648 23832 ft 397 kts 244°
2026-05-05 16:33 49.87416 6.17729 23828 ft 396 kts 244°
2026-05-05 16:34 49.86752 6.15392 23830 ft 394 kts 242°
2026-05-05 16:34 49.85451 6.11900 23824 ft 393 kts 235°
2026-05-05 16:34 49.83919 6.08396 23821 ft 393 kts 234°
2026-05-05 16:34 49.82375 6.04900 23819 ft 393 kts 233°
2026-05-05 16:35 49.80817 6.01420 23822 ft 393 kts 232°
2026-05-05 16:35 49.79245 5.97957 23821 ft 393 kts 232°
2026-05-05 16:35 49.77683 5.94557 23821 ft 393 kts 232°
2026-05-05 16:35 49.76072 5.91079 23819 ft 393 kts 232°
2026-05-05 16:36 49.74544 5.87564 23817 ft 395 kts 238°
2026-05-05 16:36 49.73402 5.83694 23836 ft 397 kts 248°
2026-05-05 16:36 49.72484 5.79660 23837 ft 397 kts 248°
2026-05-05 16:36 49.71559 5.75643 23834 ft 397 kts 247°
2026-05-05 16:37 49.70626 5.71630 23832 ft 397 kts 247°
2026-05-05 16:37 49.69689 5.67624 23830 ft 397 kts 247°
2026-05-05 16:37 49.68758 5.63662 23829 ft 397 kts 247°
2026-05-05 16:37 49.67817 5.59654 23830 ft 397 kts 247°
2026-05-05 16:38 49.66878 5.55656 23832 ft 397 kts 247°
2026-05-05 16:38 49.65942 5.51651 23826 ft 396 kts 247°
2026-05-05 16:38 49.65308 5.48944 23824 ft 396 kts 247°
2026-05-05 16:38 49.64382 5.45002 23825 ft 396 kts 247°
2026-05-05 16:39 49.63439 5.41006 23824 ft 396 kts 247°
2026-05-05 16:39 49.62495 5.37020 23831 ft 396 kts 247°
2026-05-05 16:39 49.61579 5.33013 23830 ft 397 kts 249°
2026-05-05 16:39 49.60705 5.28973 23820 ft 397 kts 249°
2026-05-05 16:40 49.59856 5.24914 23818 ft 398 kts 251°
2026-05-05 16:40 49.59288 5.20727 23814 ft 401 kts 261°
2026-05-05 16:40 49.59184 5.16414 23813 ft 404 kts 269°
2026-05-05 16:40 49.59244 5.12092 23813 ft 404 kts 268°
2026-05-05 16:41 49.59286 5.07740 23813 ft 404 kts 268°
2026-05-05 16:41 49.59315 5.03407 23817 ft 405 kts 268°
2026-05-05 16:41 49.59341 4.99068 23818 ft 405 kts 268°
2026-05-05 16:41 49.59367 4.94727 23816 ft 405 kts 268°
2026-05-05 16:42 49.59396 4.90426 23819 ft 405 kts 269°
2026-05-05 16:42 49.59422 4.86091 23808 ft 405 kts 269°
2026-05-05 16:42 49.59445 4.81743 23804 ft 405 kts 269°
2026-05-05 16:42 49.59469 4.77400 23802 ft 406 kts 269°
2026-05-05 16:43 49.59495 4.73052 23802 ft 406 kts 269°
2026-05-05 16:43 49.59524 4.68695 23798 ft 406 kts 269°
2026-05-05 16:43 49.59549 4.64338 23799 ft 406 kts 269°
2026-05-05 16:43 49.59569 4.59991 23804 ft 407 kts 269°
2026-05-05 16:44 49.59590 4.55623 23800 ft 407 kts 269°
2026-05-05 16:44 49.59608 4.51258 23806 ft 407 kts 268°
2026-05-05 16:44 49.59622 4.46915 23630 ft 402 kts 268°
2026-05-05 16:44 49.59635 4.42664 22740 ft 393 kts 268°
2026-05-05 16:45 49.59646 4.38484 22068 ft 381 kts 268°
2026-05-05 16:45 49.59653 4.34554 21622 ft 365 kts 268°
2026-05-05 16:45 49.59656 4.30606 21155 ft 362 kts 268°
2026-05-05 16:45 49.59658 4.26784 20677 ft 360 kts 268°
2026-05-05 16:46 49.59660 4.22897 20193 ft 358 kts 268°
2026-05-05 16:46 49.59661 4.19061 19698 ft 356 kts 268°
2026-05-05 16:46 49.59663 4.15293 19217 ft 356 kts 268°
2026-05-05 16:46 49.59642 4.11480 18728 ft 355 kts 264°
2026-05-05 16:47 49.59268 4.07727 18232 ft 354 kts 253°
2026-05-05 16:47 49.58442 4.04182 17709 ft 351 kts 243°
2026-05-05 16:47 49.57231 4.00937 17238 ft 347 kts 235°
2026-05-05 16:47 49.55925 3.97824 16757 ft 345 kts 235°
2026-05-05 16:48 49.54625 3.94729 16301 ft 343 kts 235°
2026-05-05 16:48 49.53334 3.91663 15847 ft 341 kts 235°
2026-05-05 16:48 49.52045 3.88605 15400 ft 340 kts 235°
2026-05-05 16:48 49.50756 3.85558 14944 ft 339 kts 235°
2026-05-05 16:49 49.49470 3.82526 14494 ft 339 kts 234°
2026-05-05 16:49 49.48192 3.79481 14033 ft 339 kts 238°
2026-05-05 16:49 49.47216 3.76179 13563 ft 340 kts 250°
2026-05-05 16:49 49.46610 3.72667 13126 ft 337 kts 254°
2026-05-05 16:50 49.46043 3.69243 12992 ft 324 kts 254°
2026-05-05 16:50 49.45490 3.65945 12858 ft 312 kts 253°
2026-05-05 16:50 49.44954 3.62776 12667 ft 303 kts 253°
2026-05-05 16:50 49.44426 3.59675 12382 ft 298 kts 253°
2026-05-05 16:51 49.43901 3.56607 12133 ft 296 kts 253°
2026-05-05 16:51 49.43373 3.53526 11875 ft 299 kts 252°
2026-05-05 16:51 49.42841 3.50429 11626 ft 299 kts 254°
2026-05-05 16:51 49.42312 3.47334 11370 ft 300 kts 252°
2026-05-05 16:52 49.41712 3.44275 11116 ft 298 kts 245°
2026-05-05 16:52 49.40922 3.41324 10871 ft 298 kts 246°
2026-05-05 16:52 49.40137 3.38390 10627 ft 298 kts 245°
2026-05-05 16:52 49.39348 3.35434 10383 ft 297 kts 246°
2026-05-05 16:53 49.38563 3.32496 10137 ft 298 kts 245°
2026-05-05 16:53 49.37776 3.29559 9900 ft 297 kts 245°
2026-05-05 16:53 49.36986 3.26622 9715 ft 298 kts 245°
2026-05-05 16:53 49.36193 3.23678 9580 ft 297 kts 245°
2026-05-05 16:54 49.35404 3.20746 9447 ft 297 kts 246°
2026-05-05 16:54 49.34629 3.17876 9312 ft 295 kts 246°
2026-05-05 16:54 49.33829 3.14923 9189 ft 296 kts 246°
2026-05-05 16:54 49.33039 3.12006 9046 ft 296 kts 246°
2026-05-05 16:55 49.32252 3.09092 8913 ft 297 kts 248°
2026-05-05 16:55 49.31463 3.06171 8782 ft 297 kts 248°
2026-05-05 16:55 49.30684 3.03286 8644 ft 296 kts 248°
2026-05-05 16:55 49.29898 3.00382 8521 ft 296 kts 248°
2026-05-05 16:56 49.29109 2.97470 8394 ft 296 kts 248°
2026-05-05 16:56 49.28319 2.94554 8262 ft 296 kts 248°
2026-05-05 16:56 49.27530 2.91654 8132 ft 295 kts 248°
2026-05-05 16:56 49.26737 2.88754 8020 ft 294 kts 247°
2026-05-05 16:57 49.25950 2.85889 7879 ft 291 kts 246°
2026-05-05 16:57 49.25166 2.83027 7759 ft 291 kts 247°
2026-05-05 16:57 49.24379 2.80159 7625 ft 293 kts 247°
2026-05-05 16:57 49.23591 2.77288 7501 ft 291 kts 247°
2026-05-05 16:58 49.22809 2.74444 7374 ft 291 kts 247°
2026-05-05 16:58 49.22033 2.71610 7249 ft 287 kts 247°
2026-05-05 16:58 49.21260 2.68793 7132 ft 289 kts 247°
2026-05-05 16:58 49.20484 2.65965 7005 ft 289 kts 248°
2026-05-05 16:59 49.19702 2.63126 6880 ft 289 kts 248°
2026-05-05 16:59 49.18922 2.60300 6756 ft 287 kts 248°
2026-05-05 16:59 49.18260 2.57435 6635 ft 285 kts 258°
2026-05-05 16:59 49.18037 2.54453 6511 ft 281 kts 270°
2026-05-05 17:00 49.17984 2.51493 6388 ft 283 kts 270°
2026-05-05 17:00 49.17929 2.48490 6265 ft 282 kts 270°
2026-05-05 17:00 49.17875 2.45493 6140 ft 283 kts 270°
2026-05-05 17:00 49.17818 2.42475 6006 ft 283 kts 270°
2026-05-05 17:01 49.17759 2.39482 5878 ft 280 kts 269°
2026-05-05 17:01 49.17715 2.36505 5746 ft 281 kts 270°
2026-05-05 17:01 49.17661 2.33531 5619 ft 279 kts 270°
2026-05-05 17:01 49.17612 2.30566 5486 ft 278 kts 270°
2026-05-05 17:02 49.17563 2.27616 5356 ft 278 kts 270°
2026-05-05 17:02 49.17512 2.24661 5226 ft 279 kts 269°
2026-05-05 17:02 49.17200 2.21739 5101 ft 280 kts 251°
2026-05-05 17:02 49.16269 2.19162 4966 ft 282 kts 232°
2026-05-05 17:03 49.14850 2.17119 4839 ft 282 kts 214°
2026-05-05 17:03 49.13081 2.15810 4714 ft 283 kts 195°
2026-05-05 17:03 49.11147 2.15385 4576 ft 280 kts 177°
2026-05-05 17:03 49.09274 2.15741 4438 ft 264 kts 168°
2026-05-05 17:04 49.07500 2.16141 4305 ft 252 kts 169°
2026-05-05 17:04 49.05802 2.16486 4178 ft 240 kts 171°
2026-05-05 17:04 49.04209 2.16920 4068 ft 225 kts 159°
2026-05-05 17:04 49.02858 2.17958 3998 ft 211 kts 139°
2026-05-05 17:05 49.01855 2.19460 3997 ft 195 kts 123°
2026-05-05 17:05 49.01217 2.21184 4007 ft 182 kts 107°
2026-05-05 17:05 49.00921 2.23013 4019 ft 175 kts 92°
2026-05-05 17:05 49.00939 2.24858 3934 ft 174 kts 82°
2026-05-05 17:06 49.01043 2.26684 3749 ft 172 kts 81°
2026-05-05 17:06 49.01147 2.28499 3530 ft 171 kts 82°
2026-05-05 17:06 49.01249 2.30309 3308 ft 171 kts 81°
2026-05-05 17:06 49.01349 2.32107 3084 ft 170 kts 81°
2026-05-05 17:07 49.01450 2.33910 2855 ft 171 kts 81°
2026-05-05 17:07 49.01550 2.35701 2623 ft 168 kts 81°
2026-05-05 17:07 49.01648 2.37471 2394 ft 167 kts 82°
2026-05-05 17:07 49.01740 2.39148 2177 ft 151 kts 81°
2026-05-05 17:08 49.01823 2.40671 1974 ft 138 kts 80°
2026-05-05 17:08 49.01903 2.42113 1792 ft 135 kts 78°
2026-05-05 17:08 49.01981 2.43521 1619 ft 131 kts 78°
2026-05-05 17:08 49.02057 2.44901 1436 ft 130 kts 78°
2026-05-05 17:09 49.02133 2.46274 1259 ft 130 kts 79°
2026-05-05 17:09 49.02210 2.47649 1068 ft 133 kts 80°
2026-05-05 17:09 49.02277 2.49062 863 ft 134 kts 83°
2026-05-05 17:09 49.02342 2.50486 673 ft 135 kts 82°
2026-05-05 17:10 49.02416 2.51910 501 ft 135 kts 80°
2026-05-05 17:10 49.02505 2.53315 371 ft 128 kts 80°
2026-05-05 17:10 49.02579 2.54556 355 ft 101 kts 79°
2026-05-05 17:10 49.02608 2.55188 363 ft 31 kts 108°
2026-05-05 17:11 49.02529 2.55437 363 ft 17 kts 116°
2026-05-05 17:11 49.02490 2.55542 360 ft 8 kts 130°
2026-05-05 17:11 49.02458 2.55588 360 ft 4 kts 143°
2026-05-05 17:11 49.02429 2.55606 359 ft 9 kts 165°
2026-05-05 17:12 49.02329 2.55624 363 ft 14 kts 175°
2026-05-05 17:12 49.02243 2.55629 355 ft 10 kts 176°
2026-05-05 17:12 49.02188 2.55635 357 ft 6 kts 176°
2026-05-05 17:12 49.02150 2.55639 362 ft 6 kts 175°
2026-05-05 17:13 49.02086 2.55609 362 ft 15 kts 239°
2026-05-05 17:13 49.02027 2.55443 357 ft 19 kts 201°
2026-05-05 17:13 49.01918 2.55453 356 ft 11 kts 188°
2026-05-05 17:13 49.01879 2.55398 355 ft 6 kts 253°
2026-05-05 17:14 49.01876 2.55372 359 ft 2 kts 260°
2026-05-05 17:14 49.01871 2.55299 357 ft 9 kts 264°
2026-05-05 17:14 49.01858 2.55166 361 ft 16 kts 247°
2026-05-05 17:14 49.01767 2.55134 355 ft 12 kts 177°
2026-05-05 17:15 49.01697 2.55141 358 ft 8 kts 176°
2026-05-05 17:15 49.01622 2.55150 359 ft 14 kts 175°
2026-05-05 17:15 49.01538 2.55160 357 ft 12 kts 175°
2026-05-05 17:15 49.01444 2.55178 355 ft 17 kts 171°
2026-05-05 17:16 49.01306 2.55216 358 ft 17 kts 185°
2026-05-05 17:16 49.01251 2.55297 357 ft 9 kts 81°
2026-05-05 17:16 49.01256 2.55373 361 ft 5 kts 85°
2026-05-05 17:16 49.01268 2.55413 358 ft 6 kts 32°
2026-05-05 17:17 49.01307 2.55409 355 ft 5 kts 356°
2026-05-05 17:17 49.01336 2.55405 355 ft 1 kts 355°
2026-05-05 17:17 49.01338 2.55405 355 ft 0 kts 355°
2026-05-05 17:17 49.01339 2.55405 355 ft 0 kts 355°